EN

Hourly Weather Traktovyy

Today, 15 April, Thursday

Time Temperature Precipitation Wind Pressure Humidity
00:00 +7°C° 0 mm 2 mps 756 mmHg 89%
01:00 +7°C° 0 mm 2 mps 756 mmHg 89%
02:00 +7°C° 0 mm 2 mps 756 mmHg 90%
03:00 +6°C° 0 mm 2 mps 755 mmHg 90%
04:00 +4°C° 0 mm 2 mps 755 mmHg 96%
05:00 +5°C° 0 mm 2 mps 755 mmHg 94%
06:00 +6°C° 0 mm 2 mps 755 mmHg 92%
07:00 +6°C° 0 mm 2 mps 755 mmHg 90%
08:00 +8°C° 0 mm 3 mps 754 mmHg 83%
09:00 +10°C° 0 mm 3 mps 754 mmHg 77%
10:00 +12°C° 0 mm 4 mps 754 mmHg 70%
11:00 +13°C° 0 mm 4 mps 754 mmHg 65%
12:00 +15°C° 0 mm 4 mps 753 mmHg 59%
13:00 +16°C° 0 mm 5 mps 753 mmHg 54%
14:00 +18°C° 0 mm 4 mps 753 mmHg 53%
15:00 +18°C° 0 mm 4 mps 752 mmHg 52%
16:00 +19°C° 0 mm 4 mps 752 mmHg 51%
17:00 +17°C° 0 mm 3 mps 752 mmHg 57%
18:00 +16°C° 0 mm 3 mps 751 mmHg 62%
19:00 +14°C° 0 mm 2 mps 751 mmHg 68%
20:00 +14°C° 0 mm 2 mps 751 mmHg 70%
21:00 +13°C° 0 mm 2 mps 751 mmHg 73%
22:00 +12°C° 0 mm 1 mps 751 mmHg 75%
23:00 +10°C° 0 mm 2 mps 751 mmHg 79%

Tomorrow, 16 April, Friday

Time Temperature Precipitation Wind Pressure Humidity
00:00 +9°C° 0 mm 3 mps 751 mmHg 83%
01:00 +8°C° 0 mm 4 mps 752 mmHg 87%
02:00 +7°C° 0 mm 4 mps 752 mmHg 87%
03:00 +6°C° 0 mm 4 mps 753 mmHg 86%
04:00 +3°C° 0 mm 5 mps 753 mmHg 85%
05:00 +3°C° 0 mm 5 mps 753 mmHg 83%
06:00 +3°C° 0 mm 5 mps 754 mmHg 81%
07:00 +3°C° 0 mm 5 mps 754 mmHg 79%
08:00 +5°C° 0 mm 5 mps 754 mmHg 77%
09:00 +5°C° 0 mm 5 mps 755 mmHg 76%
10:00 +6°C° 0 mm 5 mps 755 mmHg 75%
11:00 +6°C° 0 mm 5 mps 755 mmHg 73%
12:00 +7°C° 0 mm 5 mps 755 mmHg 71%
13:00 +7°C° 0 mm 5 mps 755 mmHg 68%
14:00 +8°C° 0 mm 4 mps 755 mmHg 63%
15:00 +10°C° 0 mm 4 mps 755 mmHg 57%
16:00 +11°C° 0 mm 4 mps 755 mmHg 51%
17:00 +10°C° 0 mm 3 mps 755 mmHg 55%
18:00 +9°C° 0 mm 3 mps 755 mmHg 59%
19:00 +8°C° 0 mm 2 mps 755 mmHg 63%
20:00 +7°C° 0 mm 2 mps 755 mmHg 65%
21:00 +5°C° 0 mm 3 mps 756 mmHg 68%
22:00 +4°C° 0 mm 3 mps 756 mmHg 71%
23:00 +3°C° 0 mm 3 mps 756 mmHg 71%

Day after tomorrow, 17 April, Saturday

Time Temperature Precipitation Wind Pressure Humidity
00:00 +2°C° 0 mm 3 mps 756 mmHg 72%
01:00 +2°C° 0 mm 3 mps 756 mmHg 72%
02:00 +1°C° 0 mm 3 mps 756 mmHg 74%
03:00 +1°C° 0 mm 3 mps 756 mmHg 75%
04:00 0°C° 0 mm 3 mps 756 mmHg 76%
05:00 +1°C° 0 mm 3 mps 756 mmHg 72%
06:00 +1°C° 0 mm 3 mps 756 mmHg 69%
07:00 +2°C° 0 mm 3 mps 756 mmHg 65%
08:00 +3°C° 0 mm 4 mps 756 mmHg 58%
09:00 +5°C° 0 mm 4 mps 757 mmHg 51%
10:00 +6°C° 0 mm 4 mps 757 mmHg 43%
11:00 +7°C° 0 mm 4 mps 756 mmHg 42%
12:00 +8°C° 0 mm 4 mps 756 mmHg 40%
13:00 +10°C° 0 mm 3 mps 756 mmHg 39%
14:00 +10°C° 0 mm 3 mps 756 mmHg 39%
15:00 +10°C° 0 mm 3 mps 755 mmHg 38%
16:00 +10°C° 0 mm 3 mps 755 mmHg 38%
17:00 +9°C° 0 mm 2 mps 755 mmHg 44%
18:00 +8°C° 0 mm 2 mps 755 mmHg 49%
19:00 +7°C° 0 mm 2 mps 754 mmHg 54%
20:00 +7°C° 0 mm 2 mps 754 mmHg 58%
21:00 +6°C° 0 mm 2 mps 754 mmHg 61%
22:00 +5°C° 0 mm 2 mps 754 mmHg 64%
23:00 +4°C° 0 mm 2 mps 754 mmHg 66%

18 April, Sunday

Time Temperature Precipitation Wind Pressure Humidity
00:00 +4°C° 0 mm 2 mps 753 mmHg 68%
01:00 +3°C° 0 mm 2 mps 753 mmHg 70%
02:00 +3°C° 0 mm 2 mps 753 mmHg 72%
03:00 +3°C° 0 mm 2 mps 753 mmHg 75%
04:00 +2°C° 0 mm 2 mps 753 mmHg 77%
05:00 +3°C° 0 mm 2 mps 753 mmHg 75%
06:00 +2°C° 0 mm 3 mps 752 mmHg 74%
07:00 +3°C° 0 mm 3 mps 752 mmHg 73%
08:00 +4°C° 0 mm 4 mps 752 mmHg 69%
09:00 +5°C° 0 mm 4 mps 752 mmHg 65%
10:00 +6°C° 0 mm 5 mps 753 mmHg 60%
11:00 +6°C° 0 mm 5 mps 753 mmHg 56%
12:00 +5°C° 0 mm 5 mps 753 mmHg 52%
13:00 +5°C° 0 mm 5 mps 754 mmHg 48%
14:00 +5°C° 0 mm 5 mps 754 mmHg 42%
15:00 +4°C° 0 mm 6 mps 754 mmHg 37%
16:00 +4°C° 0 mm 6 mps 755 mmHg 32%
17:00 +3°C° 0 mm 6 mps 755 mmHg 37%
18:00 +3°C° 0 mm 6 mps 756 mmHg 41%
19:00 +2°C° 0 mm 6 mps 756 mmHg 46%
20:00 +1°C° 0 mm 6 mps 757 mmHg 48%
21:00 0°C° 0 mm 5 mps 757 mmHg 50%
22:00 -2°C° 0 mm 5 mps 758 mmHg 52%
23:00 -2°C° 0 mm 5 mps 759 mmHg 51%

19 April, Monday

Time Temperature Precipitation Wind Pressure Humidity
00:00 -2°C° 0 mm 5 mps 759 mmHg 51%
01:00 -4°C° 0 mm 5 mps 759 mmHg 50%
02:00 -4°C° 0 mm 5 mps 760 mmHg 49%
03:00 -4°C° 0 mm 5 mps 760 mmHg 48%
04:00 -4°C° 0 mm 4 mps 761 mmHg 47%
05:00 -4°C° 0 mm 5 mps 761 mmHg 44%
06:00 -4°C° 0 mm 5 mps 761 mmHg 41%
07:00 -4°C° 0 mm 5 mps 762 mmHg 38%
08:00 -2°C° 0 mm 5 mps 762 mmHg 34%
09:00 -1°C° 0 mm 5 mps 762 mmHg 30%
10:00 -1°C° 0 mm 6 mps 762 mmHg 27%
11:00 0°C° 0 mm 5 mps 762 mmHg 26%
12:00 +1°C° 0 mm 5 mps 762 mmHg 26%
13:00 +2°C° 0 mm 5 mps 761 mmHg 26%
14:00 +2°C° 0 mm 5 mps 761 mmHg 27%
15:00 +2°C° 0 mm 5 mps 761 mmHg 27%
16:00 +2°C° 0 mm 5 mps 761 mmHg 28%
17:00 +1°C° 0 mm 4 mps 761 mmHg 33%
18:00 +2°C° 0 mm 3 mps 761 mmHg 38%
19:00 +2°C° 0 mm 2 mps 761 mmHg 43%
20:00 +1°C° 0 mm 2 mps 761 mmHg 46%
21:00 -1°C° 0 mm 2 mps 761 mmHg 48%
22:00 -2°C° 0 mm 2 mps 762 mmHg 50%
23:00 -2°C° 0 mm 2 mps 762 mmHg 51%

20 April, Tuesday

Time Temperature Precipitation Wind Pressure Humidity
00:00 -2°C° 0 mm 2 mps 762 mmHg 52%
01:00 -2°C° 0 mm 2 mps 762 mmHg 53%
02:00 -2°C° 0 mm 2 mps 762 mmHg 54%
03:00 -2°C° 0 mm 2 mps 762 mmHg 55%
04:00 -3°C° 0 mm 2 mps 762 mmHg 56%
05:00 -2°C° 0 mm 2 mps 762 mmHg 52%
06:00 -1°C° 0 mm 2 mps 762 mmHg 49%
07:00 0°C° 0 mm 3 mps 763 mmHg 45%
08:00 +1°C° 0 mm 3 mps 762 mmHg 40%
09:00 +2°C° 0 mm 3 mps 762 mmHg 35%
10:00 +3°C° 0 mm 3 mps 762 mmHg 31%
11:00 +4°C° 0 mm 3 mps 762 mmHg 31%
12:00 +5°C° 0 mm 3 mps 762 mmHg 32%
13:00 +7°C° 0 mm 3 mps 761 mmHg 32%
14:00 +7°C° 0 mm 3 mps 761 mmHg 33%
15:00 +8°C° 0 mm 3 mps 761 mmHg 35%
16:00 +8°C° 0 mm 3 mps 761 mmHg 36%
17:00 +7°C° 0 mm 3 mps 761 mmHg 41%
18:00 +6°C° 0 mm 2 mps 761 mmHg 47%
19:00 +5°C° 0 mm 2 mps 761 mmHg 53%
20:00 +4°C° 0 mm 2 mps 761 mmHg 55%
21:00 +4°C° 0 mm 1 mps 761 mmHg 58%
22:00 +3°C° 0 mm 1 mps 761 mmHg 61%
23:00 +3°C° 0 mm 1 mps 762 mmHg 62%
Show more

We Need Your Consent

Meteoprog and our Service Providers may store and access personal data such as cookies, device identifiers or other similar technologies on your device and process such data to personalise content and ads, as well as provide social media features and to analyse the traffic.

  • Store and/or access information on your device

    Cookies, device identifiers or other information can be stored or accessed on your device for the purposes indicated above.

  • Personalised ads and content, ad and content measurement, audience insights, and products development

    Ads and content can be personalised based on a profile. More data can be added to better personalise ads and content. Ad and content performance can be measured. Insights about the audience who saw the ads and content can be derived. Such data can be used to develop or improve user’s experience, systems and software.

By clicking ‘I Agree’ you will allow the use of indicated cookies, device identifiers, web beacons or other similar technologies. Your settings can be changed in the browser on your device.

For certain purposes, legitimate interests may be relied on, rather than consent. You can read more about this in our Privacy and Cookie Policy.